contact:dominique.lefevre@mio.osupytheas.fr, maurice.libes@osupytheas.fr, didier.mallarino@osupytheas.fr
Project:EMSO http://www.emso-fr.org/EMSO-France
Depth: 2436.0 m
Title:EMSO Ligure Ouest : Data MII capteur AQUADOPP
Date,Latitude,Longitude,X_East,Y_North,Z_Up,Amplitude_X,Amplitude_Y,Amplitude_Z,Batterie,SoundSpeed,Heading,Pitch,Roll,Pressure,TIS,Speed,Direction
, degrees North, degrees East, m.s-1, m.s-1,m.s-1, 1, 1, 1, Volt, m.s-1, degree, degree, degree, dbar, degree_C, m.s-1, degree
2022-02-13T00:04:03,42.805,6.029,0.034,-0.034,-0.028,102.0,101.0,100.0,13.4,1505.2,329.1,-0.7,1.8,2470.663,13.28,0.048,135.0
2022-02-13T00:07:03,42.805,6.029,0.054,-0.004,0.0,99.0,101.0,101.0,13.4,1505.2,325.0,-0.8,1.8,2470.618,13.28,0.054,94.2
2022-02-13T00:10:03,42.805,6.029,0.014,-0.026,0.002,102.0,100.0,101.0,13.4,1505.2,329.0,-0.8,1.8,2470.613,13.28,0.029,151.7
2022-02-13T00:13:03,42.805,6.029,0.034,-0.01,0.02,101.0,102.0,100.0,13.4,1505.2,328.2,-0.7,1.8,2470.656,13.28,0.035,106.4
2022-02-13T00:16:03,42.805,6.029,0.017,-0.002,0.005,102.0,102.0,99.0,13.4,1505.2,327.9,-0.7,1.8,2470.664,13.28,0.017,96.7
2022-02-13T00:19:03,42.805,6.029,0.048,-0.021,0.019,101.0,101.0,101.0,13.4,1505.2,327.7,-0.8,1.8,2470.598,13.28,0.052,113.6
2022-02-13T00:22:03,42.805,6.029,0.037,-0.02,-0.005,101.0,101.0,101.0,13.4,1505.2,323.9,-0.8,1.8,2470.598,13.28,0.042,118.4
2022-02-13T00:25:03,42.805,6.029,0.025,-0.015,-0.014,101.0,101.0,100.0,13.3,1505.2,325.7,-0.8,1.8,2470.609,13.28,0.029,121.0
2022-02-13T00:28:03,42.805,6.029,0.023,-0.019,-0.043,101.0,102.0,101.0,13.4,1505.2,327.0,-0.7,1.8,2470.644,13.28,0.029,129.6
2022-02-13T00:31:03,42.805,6.029,0.052,-0.017,-0.01,100.0,101.0,101.0,13.3,1505.2,325.7,-0.7,1.8,2470.631,13.28,0.054,108.1
2022-02-13T00:34:03,42.805,6.029,0.032,-0.027,-0.022,101.0,102.0,100.0,13.3,1505.2,328.6,-0.7,1.9,2470.662,13.28,0.041,130.2
2022-02-13T00:37:03,42.805,6.029,0.06,-0.011,0.017,102.0,100.0,100.0,13.4,1505.2,326.4,-0.8,1.8,2470.632,13.28,0.06,100.4
2022-02-13T00:40:03,42.805,6.029,0.054,-0.005,0.01,101.0,103.0,99.0,13.4,1505.2,329.4,-0.8,1.8,2470.647,13.28,0.054,95.3
2022-02-13T00:43:03,42.805,6.029,0.028,-0.008,-0.022,101.0,101.0,101.0,13.3,1505.2,328.7,-0.8,1.9,2470.628,13.28,0.029,105.9
2022-02-13T00:46:03,42.805,6.029,0.042,-0.013,-0.012,101.0,102.0,100.0,13.4,1505.2,328.2,-0.8,1.8,2470.631,13.28,0.043,107.2
2022-02-13T00:49:03,42.805,6.029,0.04,-0.021,-0.032,101.0,102.0,100.0,13.4,1505.2,325.6,-0.7,1.8,2470.641,13.28,0.045,117.7
2022-02-13T00:52:03,42.805,6.029,0.036,-0.037,-0.051,101.0,103.0,101.0,13.3,1505.2,331.0,-0.7,1.8,2470.649,13.28,0.051,135.8
2022-02-13T00:55:03,42.805,6.029,0.034,-0.015,0.003,102.0,102.0,101.0,13.4,1505.2,330.0,-0.7,1.8,2470.662,13.28,0.037,113.8
2022-02-13T00:58:03,42.805,6.029,0.043,-0.03,-0.008,100.0,103.0,101.0,13.4,1505.2,325.9,-0.8,1.8,2470.654,13.28,0.052,124.9
2022-02-13T01:04:03,42.805,6.029,0.022,0.018,-0.014,104.0,104.0,102.0,13.4,1505.2,323.7,-0.8,1.8,2470.71,13.28,0.028,50.7
2022-02-13T01:07:03,42.805,6.029,0.062,-0.003,0.029,102.0,103.0,103.0,13.4,1505.2,325.3,-0.8,1.8,2470.657,13.28,0.062,92.8
2022-02-13T01:10:03,42.805,6.029,0.052,-0.014,0.019,101.0,100.0,102.0,13.3,1505.2,329.1,-0.8,1.8,2470.625,13.28,0.053,105.1
2022-02-13T01:13:03,42.805,6.029,0.023,-0.008,0.015,99.0,103.0,101.0,13.4,1505.2,328.0,-0.8,1.8,2470.693,13.28,0.024,109.2
2022-02-13T01:16:03,42.805,6.029,0.005,-0.029,-0.02,102.0,101.0,100.0,13.4,1505.2,327.2,-0.8,1.8,2470.685,13.28,0.029,170.2
2022-02-13T01:19:03,42.805,6.029,0.013,-0.022,-0.042,100.0,102.0,100.0,13.3,1505.2,326.3,-0.8,1.8,2470.693,13.28,0.025,149.4
2022-02-13T01:22:03,42.805,6.029,0.032,-0.018,0.018,102.0,101.0,100.0,13.4,1505.2,329.6,-0.8,1.8,2470.673,13.28,0.036,119.4
2022-02-13T01:25:03,42.805,6.029,0.042,-0.026,-0.021,100.0,103.0,100.0,13.4,1505.2,327.4,-0.8,1.8,2470.699,13.28,0.049,121.8
2022-02-13T01:28:03,42.805,6.029,0.028,-0.003,0.008,101.0,102.0,100.0,13.4,1505.2,331.3,-0.7,1.8,2470.667,13.28,0.028,96.1
2022-02-13T01:31:03,42.805,6.029,0.022,-0.004,-0.014,101.0,103.0,99.0,13.4,1505.2,330.6,-0.8,1.8,2470.68,13.28,0.022,100.3
2022-02-13T01:34:03,42.805,6.029,0.04,-0.014,0.002,102.0,101.0,100.0,13.3,1505.2,325.9,-0.8,1.9,2470.692,13.28,0.042,109.3
2022-02-13T01:37:03,42.805,6.029,0.02,-0.009,0.015,100.0,102.0,100.0,13.4,1505.2,324.9,-0.7,1.8,2470.679,13.28,0.021,114.2
2022-02-13T01:40:03,42.805,6.029,0.045,-0.019,-0.032,101.0,102.0,101.0,13.4,1505.2,327.0,-0.8,1.8,2470.714,13.28,0.048,112.9
2022-02-13T01:43:03,42.805,6.029,0.028,-0.006,-0.004,101.0,102.0,100.0,13.4,1505.2,326.5,-0.8,1.8,2470.707,13.28,0.028,102.1
2022-02-13T01:46:03,42.805,6.029,0.018,-0.006,0.002,101.0,102.0,100.0,13.3,1505.2,325.0,-0.8,1.8,2470.727,13.28,0.018,108.4
2022-02-13T01:49:03,42.805,6.029,0.037,-0.02,0.004,102.0,103.0,100.0,13.3,1505.2,331.8,-0.8,1.8,2470.695,13.28,0.042,118.4
2022-02-13T01:52:03,42.805,6.029,0.043,-0.027,-0.029,102.0,102.0,100.0,13.4,1505.2,327.9,-0.7,1.8,2470.68,13.28,0.05,122.1
2022-02-13T01:55:03,42.805,6.029,0.034,-0.016,-0.018,102.0,102.0,100.0,13.3,1505.2,331.2,-0.7,1.8,2470.703,13.28,0.037,115.2
2022-02-13T01:58:03,42.805,6.029,0.038,-0.007,0.008,100.0,101.0,101.0,13.4,1505.2,323.9,-0.8,1.8,2470.692,13.28,0.038,100.4
2022-02-13T02:01:03,42.805,6.029,0.03,0.002,0.013,101.0,102.0,100.0,13.4,1505.2,327.6,-0.7,1.8,2470.694,13.28,0.03,86.2
2022-02-13T02:04:03,42.805,6.029,0.037,-0.006,-0.018,101.0,103.0,100.0,13.3,1505.2,330.0,-0.7,1.8,2470.714,13.28,0.037,99.2
2022-02-13T02:07:03,42.805,6.029,0.061,-0.018,0.026,101.0,102.0,100.0,13.4,1505.2,324.9,-0.7,1.8,2470.709,13.28,0.063,106.4
2022-02-13T02:10:03,42.805,6.029,0.058,-0.018,0.001,100.0,103.0,100.0,13.4,1505.2,331.1,-0.8,1.9,2470.668,13.28,0.06,107.2
2022-02-13T02:13:03,42.805,6.029,0.026,-0.013,-0.019,101.0,102.0,100.0,13.4,1505.2,327.1,-0.8,1.8,2470.754,13.28,0.029,116.6
2022-02-13T02:16:03,42.805,6.029,0.023,-0.02,-0.043,101.0,102.0,100.0,13.3,1505.2,328.3,-0.8,1.8,2470.714,13.28,0.03,131.0
2022-02-13T02:19:03,42.805,6.029,0.019,-0.016,-0.03,101.0,102.0,101.0,13.3,1505.2,323.6,-0.7,1.8,2470.758,13.28,0.024,130.1
2022-02-13T02:22:03,42.805,6.029,0.042,-0.011,0.001,100.0,103.0,101.0,13.3,1505.2,325.4,-0.7,1.8,2470.734,13.28,0.043,104.7
2022-02-13T02:25:03,42.805,6.029,0.046,-0.005,0.018,101.0,101.0,102.0,13.3,1505.2,331.3,-0.8,1.8,2470.69,13.28,0.046,96.2
2022-02-13T02:28:03,42.805,6.029,0.029,-0.013,-0.023,101.0,101.0,100.0,13.4,1505.2,325.7,-0.8,1.8,2470.714,13.28,0.031,114.1
2022-02-13T02:31:03,42.805,6.029,0.021,-0.028,-0.001,100.0,102.0,100.0,13.4,1505.2,330.9,-0.8,1.8,2470.702,13.28,0.035,143.1
2022-02-13T02:34:03,42.805,6.029,0.011,0.0,0.0,102.0,103.0,100.0,13.4,1505.2,327.3,-0.8,1.8,2470.727,13.28,0.011,90.0
2022-02-13T02:37:03,42.805,6.029,0.041,-0.04,-0.061,102.0,103.0,100.0,13.4,1505.2,326.4,-0.8,1.8,2470.714,13.28,0.057,134.3
2022-02-13T02:40:03,42.805,6.029,0.031,-0.007,0.0,101.0,102.0,100.0,13.3,1505.2,326.7,-0.8,1.8,2470.71,13.28,0.031,102.7
2022-02-13T02:43:03,42.805,6.029,0.051,0.013,0.04,101.0,102.0,100.0,13.4,1505.2,325.0,-0.8,1.8,2470.726,13.28,0.052,75.7
2022-02-13T02:46:03,42.805,6.029,0.026,-0.002,-0.024,101.0,101.0,101.0,13.4,1505.2,324.7,-0.8,1.8,2470.726,13.28,0.026,94.4
2022-02-13T02:49:03,42.805,6.029,0.053,-0.028,-0.026,101.0,102.0,100.0,13.4,1505.2,328.2,-0.8,1.8,2470.727,13.28,0.059,117.9
2022-02-13T02:52:03,42.805,6.029,0.035,-0.019,-0.04,101.0,103.0,100.0,13.4,1505.2,326.0,-0.8,1.8,2470.741,13.28,0.039,118.5
2022-02-13T02:55:03,42.805,6.029,0.051,-0.023,0.014,101.0,102.0,100.0,13.4,1505.2,329.6,-0.8,1.8,2470.76,13.28,0.055,114.3
2022-02-13T02:58:03,42.805,6.029,0.021,-0.011,-0.001,100.0,102.0,102.0,13.4,1505.2,329.3,-0.8,1.8,2470.729,13.28,0.023,117.6
2022-02-13T03:04:03,42.805,6.029,0.03,-0.026,-0.002,101.0,103.0,101.0,13.4,1505.2,329.3,-0.8,1.8,2470.761,13.28,0.039,130.9
2022-02-13T03:07:03,42.805,6.029,0.035,-0.02,-0.015,102.0,103.0,100.0,13.3,1505.2,329.4,-0.7,1.9,2470.752,13.28,0.04,119.7
2022-02-13T03:10:03,42.805,6.029,0.05,-0.004,0.025,101.0,102.0,101.0,13.3,1505.2,326.0,-0.8,1.8,2470.79,13.28,0.05,94.6
2022-02-13T03:13:03,42.805,6.029,0.057,-0.028,-0.002,101.0,103.0,101.0,13.3,1505.2,325.3,-0.8,1.8,2470.776,13.28,0.063,116.2
2022-02-13T03:16:03,42.805,6.029,0.029,-0.006,-0.011,102.0,102.0,101.0,13.4,1505.2,323.3,-0.8,1.8,2470.795,13.28,0.029,101.7
2022-02-13T03:19:03,42.805,6.029,0.039,-0.032,0.01,101.0,101.0,100.0,13.3,1505.2,328.8,-0.8,1.8,2470.775,13.28,0.05,129.4
2022-02-13T03:22:03,42.805,6.029,0.024,0.0,0.0,103.0,102.0,99.0,13.4,1505.2,326.4,-0.7,1.8,2470.749,13.28,0.024,90.0
2022-02-13T03:25:03,42.805,6.029,0.044,-0.025,-0.008,102.0,103.0,100.0,13.3,1505.2,330.6,-0.8,1.8,2470.732,13.28,0.05,119.6
2022-02-13T03:28:03,42.805,6.029,0.048,-0.029,0.02,101.0,102.0,101.0,13.3,1505.2,326.8,-0.7,1.8,2470.773,13.28,0.056,121.1
2022-02-13T03:31:03,42.805,6.029,0.035,-0.008,-0.013,102.0,104.0,99.0,13.4,1505.2,331.0,-0.8,1.8,2470.783,13.28,0.035,102.9
2022-02-13T03:34:03,42.805,6.029,0.035,-0.026,-0.012,100.0,103.0,101.0,13.4,1505.2,324.1,-0.8,1.8,2470.786,13.28,0.043,126.6
2022-02-13T03:37:03,42.805,6.029,0.016,-0.007,-0.031,100.0,102.0,101.0,13.3,1505.2,328.7,-0.8,1.8,2470.808,13.28,0.017,113.6
2022-02-13T03:40:03,42.805,6.029,0.032,-0.019,-0.027,101.0,103.0,100.0,13.4,1505.2,327.3,-0.7,1.8,2470.784,13.28,0.037,120.7
2022-02-13T03:43:03,42.805,6.029,0.044,-0.01,0.0,103.0,103.0,99.0,13.3,1505.2,330.7,-0.8,1.8,2470.759,13.28,0.045,102.8
2022-02-13T03:46:03,42.805,6.029,0.035,-0.019,-0.001,100.0,102.0,102.0,13.4,1505.2,330.7,-0.8,1.8,2470.805,13.28,0.039,118.5
2022-02-13T03:49:03,42.805,6.029,0.012,0.001,0.003,101.0,101.0,100.0,13.4,1505.2,331.8,-0.7,1.8,2470.794,13.28,0.012,85.2
2022-02-13T03:52:03,42.805,6.029,0.04,-0.011,0.024,102.0,102.0,100.0,13.3,1505.2,329.0,-0.8,1.8,2470.791,13.28,0.041,105.4
2022-02-13T03:55:03,42.805,6.029,0.046,-0.022,-0.007,102.0,103.0,100.0,13.3,1505.2,328.8,-0.8,1.8,2470.806,13.28,0.05,115.6
2022-02-13T03:58:03,42.805,6.029,0.04,-0.023,-0.012,101.0,105.0,99.0,13.4,1505.2,325.3,-0.8,1.8,2470.835,13.28,0.046,119.9
2022-02-13T04:04:03,42.805,6.029,0.015,-0.017,-0.016,100.0,103.0,101.0,13.3,1505.2,328.9,-0.7,1.8,2470.865,13.28,0.022,138.6
2022-02-13T04:07:03,42.805,6.029,0.03,0.0,0.036,101.0,103.0,100.0,13.4,1505.2,324.9,-0.8,1.8,2470.843,13.28,0.03,90.0
2022-02-13T04:10:03,42.805,6.029,0.049,-0.008,0.02,101.0,102.0,101.0,13.4,1505.2,328.3,-0.8,1.8,2470.811,13.28,0.049,99.3
2022-02-13T04:13:03,42.805,6.029,0.045,-0.001,0.031,101.0,104.0,99.0,13.3,1505.2,325.3,-0.8,1.8,2470.808,13.28,0.045,91.3
2022-02-13T04:16:03,42.805,6.029,0.03,0.018,0.091,102.0,104.0,100.0,13.4,1505.2,330.1,-0.7,1.8,2470.833,13.28,0.034,59.0
2022-02-13T04:19:03,42.805,6.029,0.035,-0.004,0.028,101.0,103.0,101.0,13.3,1505.2,325.2,-0.7,1.8,2470.813,13.28,0.035,96.5
2022-02-13T04:22:03,42.805,6.029,0.032,-0.003,0.0,101.0,102.0,100.0,13.4,1505.2,328.6,-0.8,1.8,2470.778,13.28,0.032,95.4
2022-02-13T04:25:03,42.805,6.029,0.023,-0.004,0.026,101.0,104.0,101.0,13.4,1505.2,325.4,-0.7,1.8,2470.833,13.28,0.023,99.9
2022-02-13T04:28:03,42.805,6.029,0.035,-0.025,-0.001,101.0,102.0,100.0,13.4,1505.2,329.1,-0.7,1.8,2470.817,13.28,0.043,125.5
2022-02-13T04:31:03,42.805,6.029,0.038,-0.024,0.01,101.0,103.0,100.0,13.3,1505.2,327.7,-0.7,1.8,2470.844,13.28,0.044,122.3
2022-02-13T04:34:03,42.805,6.029,0.048,0.002,0.019,100.0,104.0,101.0,13.4,1505.2,326.3,-0.8,1.8,2470.849,13.28,0.048,87.6
2022-02-13T04:37:03,42.805,6.029,0.044,-0.009,0.002,102.0,103.0,100.0,13.4,1505.2,326.1,-0.7,1.8,2470.795,13.28,0.044,101.6
2022-02-13T04:40:03,42.805,6.029,0.04,0.0,0.034,101.0,103.0,100.0,13.4,1505.2,326.6,-0.8,1.8,2470.835,13.28,0.04,90.0
2022-02-13T04:43:03,42.805,6.029,0.024,0.001,-0.014,102.0,101.0,100.0,13.3,1505.2,328.3,-0.7,1.8,2470.81,13.28,0.024,87.6
2022-02-13T04:46:03,42.805,6.029,0.034,-0.013,-0.02,102.0,100.0,100.0,13.4,1505.2,326.3,-0.7,1.8,2470.814,13.28,0.036,110.9
2022-02-13T04:49:03,42.805,6.029,0.041,-0.017,0.022,101.0,104.0,100.0,13.4,1505.2,327.0,-0.8,1.8,2470.785,13.28,0.044,112.5
2022-02-13T04:52:03,42.805,6.029,0.04,-0.01,-0.014,102.0,105.0,99.0,13.3,1505.2,323.6,-0.8,1.8,2470.843,13.28,0.041,104.0
2022-02-13T04:55:03,42.805,6.029,0.01,-0.005,-0.035,103.0,102.0,100.0,13.4,1505.2,329.4,-0.8,1.8,2470.814,13.28,0.011,116.6
2022-02-13T04:58:03,42.805,6.029,0.034,0.004,0.007,103.0,101.0,100.0,13.4,1505.2,325.4,-0.8,1.8,2470.811,13.28,0.034,83.3
2022-02-13T05:04:03,42.805,6.029,0.011,0.007,0.032,102.0,103.0,100.0,13.4,1505.2,327.9,-0.8,1.8,2470.841,13.28,0.013,57.5
2022-02-13T05:07:03,42.805,6.029,0.051,-0.001,0.005,102.0,102.0,101.0,13.4,1505.2,323.6,-0.8,1.8,2470.884,13.28,0.051,91.1
2022-02-13T05:10:03,42.805,6.029,0.028,-0.009,-0.022,102.0,103.0,101.0,13.4,1505.2,324.9,-0.7,1.8,2470.829,13.28,0.029,107.8
2022-02-13T05:13:03,42.805,6.029,0.035,-0.021,-0.004,101.0,103.0,100.0,13.3,1505.2,324.6,-0.8,1.8,2470.845,13.28,0.04,121.0
2022-02-13T05:16:03,42.805,6.029,0.037,-0.012,0.0,100.0,104.0,101.0,13.4,1505.2,330.8,-0.7,1.8,2470.832,13.28,0.038,108.0
2022-02-13T05:19:03,42.805,6.029,0.051,-0.017,0.001,101.0,102.0,101.0,13.4,1505.2,325.0,-0.8,1.8,2470.811,13.28,0.053,108.4
2022-02-13T05:22:03,42.805,6.029,0.036,-0.028,-0.021,101.0,104.0,100.0,13.4,1505.2,331.1,-0.8,1.8,2470.824,13.28,0.045,127.9
2022-02-13T05:25:03,42.805,6.029,0.041,-0.01,0.052,103.0,102.0,100.0,13.4,1505.2,330.2,-0.7,1.8,2470.852,13.28,0.042,103.7
2022-02-13T05:28:03,42.805,6.029,0.034,-0.02,0.0,103.0,101.0,101.0,13.4,1505.2,323.9,-0.8,1.8,2470.801,13.28,0.039,120.5
2022-02-13T05:31:03,42.805,6.029,0.028,-0.011,-0.028,102.0,105.0,100.0,13.4,1505.2,323.2,-0.7,1.8,2470.85,13.28,0.03,111.4
2022-02-13T05:34:03,42.805,6.029,0.037,-0.007,-0.014,100.0,103.0,101.0,13.4,1505.2,324.9,-0.7,1.8,2470.821,13.28,0.037,100.7
2022-02-13T05:37:03,42.805,6.029,0.017,-0.008,0.007,101.0,103.0,101.0,13.3,1505.2,328.1,-0.7,1.8,2470.853,13.28,0.018,115.2
2022-02-13T05:40:03,42.805,6.029,0.036,-0.012,0.014,101.0,104.0,99.0,13.4,1505.2,327.1,-0.7,1.8,2470.84,13.28,0.037,108.4
2022-02-13T05:43:03,42.805,6.029,0.037,-0.023,0.004,101.0,102.0,100.0,13.4,1505.2,326.1,-0.7,1.8,2470.821,13.28,0.043,121.9
2022-02-13T05:46:03,42.805,6.029,0.031,0.011,-0.003,101.0,103.0,100.0,13.4,1505.2,324.2,-0.7,1.8,2470.844,13.28,0.032,70.5
2022-02-13T05:49:03,42.805,6.029,0.03,-0.02,-0.001,101.0,104.0,100.0,13.3,1505.2,324.4,-0.8,1.8,2470.849,13.28,0.036,123.7
2022-02-13T05:52:03,42.805,6.029,0.051,-0.013,-0.021,101.0,102.0,100.0,13.3,1505.2,327.1,-0.7,1.8,2470.885,13.28,0.052,104.3
2022-02-13T05:55:03,42.805,6.029,0.005,0.0,0.03,101.0,103.0,101.0,13.4,1505.2,326.1,-0.8,1.8,2470.874,13.28,0.005,90.0
2022-02-13T05:58:03,42.805,6.029,0.055,-0.021,-0.017,102.0,102.0,101.0,13.4,1505.2,331.0,-0.7,1.8,2470.831,13.28,0.058,110.9
2022-02-13T06:04:03,42.805,6.029,0.039,-0.016,0.008,102.0,102.0,100.0,13.4,1505.2,324.4,-0.7,1.8,2470.837,13.28,0.042,112.3
2022-02-13T06:07:03,42.805,6.029,0.037,0.004,0.043,101.0,102.0,100.0,13.3,1505.2,328.9,-0.7,1.8,2470.835,13.28,0.037,83.8
2022-02-13T06:10:03,42.805,6.029,0.042,-0.017,-0.01,102.0,103.0,100.0,13.4,1505.2,325.7,-0.8,1.8,2470.85,13.28,0.045,112.0
2022-02-13T06:13:03,42.805,6.029,0.039,-0.017,0.013,102.0,103.0,101.0,13.4,1505.2,327.0,-0.7,1.8,2470.86,13.28,0.042,113.5
2022-02-13T06:16:03,42.805,6.029,0.044,-0.018,0.002,102.0,104.0,100.0,13.4,1505.2,329.3,-0.7,1.8,2470.86,13.28,0.047,112.2
2022-02-13T06:19:03,42.805,6.029,0.03,-0.004,0.008,102.0,103.0,102.0,13.3,1505.2,324.2,-0.7,1.8,2470.822,13.28,0.03,97.6
2022-02-13T06:22:03,42.805,6.029,0.062,-0.016,-0.001,102.0,104.0,100.0,13.4,1505.2,331.2,-0.8,1.8,2470.86,13.28,0.064,104.5
2022-02-13T06:25:03,42.805,6.029,0.045,-0.008,0.014,101.0,105.0,100.0,13.4,1505.2,326.8,-0.8,1.8,2470.85,13.28,0.045,100.1
2022-02-13T06:28:03,42.805,6.029,0.032,-0.018,-0.031,101.0,103.0,100.0,13.4,1505.2,327.0,-0.8,1.8,2470.836,13.28,0.036,119.4
2022-02-13T06:31:03,42.805,6.029,0.038,-0.042,-0.012,101.0,103.0,100.0,13.3,1505.2,329.0,-0.8,1.8,2470.85,13.28,0.056,137.9
2022-02-13T06:34:03,42.805,6.029,0.019,-0.007,0.009,101.0,103.0,100.0,13.4,1505.2,326.8,-0.8,1.8,2470.846,13.28,0.02,110.2
2022-02-13T06:37:03,42.805,6.029,0.047,-0.027,-0.006,103.0,102.0,101.0,13.4,1505.2,328.7,-0.7,1.9,2470.817,13.28,0.054,119.9
2022-02-13T06:40:03,42.805,6.029,0.048,0.002,0.008,101.0,104.0,100.0,13.4,1505.2,329.0,-0.7,1.8,2470.839,13.28,0.048,87.6
2022-02-13T06:43:03,42.805,6.029,0.034,-0.018,-0.042,100.0,103.0,101.0,13.4,1505.2,330.9,-0.8,1.8,2470.819,13.28,0.038,117.9
2022-02-13T06:46:03,42.805,6.029,0.065,0.007,0.032,101.0,105.0,101.0,13.3,1505.2,325.8,-0.7,1.8,2470.823,13.28,0.065,83.9
2022-02-13T06:49:03,42.805,6.029,0.026,0.023,0.022,101.0,103.0,99.0,13.4,1505.2,331.6,-0.7,1.8,2470.834,13.28,0.034,48.5
2022-02-13T06:52:03,42.805,6.029,0.045,-0.014,0.014,102.0,105.0,100.0,13.4,1505.2,331.6,-0.7,1.8,2470.828,13.28,0.047,107.3
2022-02-13T06:55:03,42.805,6.029,0.07,-0.002,0.017,102.0,102.0,100.0,13.4,1505.2,329.0,-0.8,1.8,2470.845,13.28,0.07,91.6
2022-02-13T06:58:03,42.805,6.029,0.031,-0.007,-0.014,101.0,103.0,100.0,13.4,1505.2,329.6,-0.8,1.8,2470.828,13.28,0.031,102.7
2022-02-13T07:04:03,42.805,6.029,0.063,-0.022,-0.011,101.0,104.0,101.0,13.3,1505.2,328.5,-0.8,1.8,2470.848,13.28,0.066,109.2
2022-02-13T07:07:03,42.805,6.029,0.066,-0.001,0.043,103.0,103.0,100.0,13.4,1505.2,331.8,-0.8,1.8,2470.821,13.28,0.066,90.9
2022-02-13T07:10:03,42.805,6.029,0.041,0.002,-0.005,100.0,102.0,102.0,13.4,1505.2,324.3,-0.7,1.8,2470.83,13.28,0.041,87.2
2022-02-13T07:13:03,42.805,6.029,0.029,-0.022,-0.02,99.0,103.0,100.0,13.3,1505.2,331.2,-0.7,1.8,2470.846,13.28,0.036,127.2
2022-02-13T07:16:03,42.805,6.029,0.054,-0.006,-0.008,100.0,104.0,101.0,13.4,1505.2,327.0,-0.8,1.8,2470.829,13.28,0.054,96.3
2022-02-13T07:19:03,42.805,6.029,0.059,-0.002,0.003,101.0,103.0,101.0,13.4,1505.2,325.9,-0.8,1.9,2470.821,13.28,0.059,91.9
2022-02-13T07:22:03,42.805,6.029,0.02,-0.019,-0.02,101.0,103.0,101.0,13.4,1505.2,323.7,-0.7,1.8,2470.826,13.28,0.027,133.5
2022-02-13T07:25:03,42.805,6.029,0.034,-0.009,0.001,101.0,104.0,100.0,13.3,1505.2,329.1,-0.8,1.8,2470.852,13.28,0.035,104.8
2022-02-13T07:28:03,42.805,6.029,0.063,-0.012,-0.023,102.0,104.0,99.0,13.4,1505.2,326.3,-0.8,1.8,2470.805,13.28,0.064,100.8
2022-02-13T07:31:03,42.805,6.029,0.032,-0.038,-0.013,99.0,103.0,101.0,13.4,1505.2,326.3,-0.8,1.8,2470.827,13.28,0.049,139.9
2022-02-13T07:34:03,42.805,6.029,0.067,-0.02,0.016,101.0,103.0,101.0,13.4,1505.2,328.5,-0.8,1.8,2470.847,13.28,0.069,106.6
2022-02-13T07:37:03,42.805,6.029,0.048,-0.007,0.008,100.0,103.0,100.0,13.4,1505.2,327.9,-0.7,1.8,2470.858,13.28,0.048,98.3
2022-02-13T07:40:03,42.805,6.029,0.029,-0.009,-0.005,100.0,103.0,100.0,13.4,1505.2,326.1,-0.8,1.8,2470.86,13.28,0.03,107.2
2022-02-13T07:43:03,42.805,6.029,0.025,-0.02,-0.011,102.0,103.0,101.0,13.4,1505.2,329.6,-0.7,1.8,2470.816,13.28,0.032,128.7
2022-02-13T07:46:03,42.805,6.029,0.022,-0.028,-0.018,100.0,103.0,101.0,13.3,1505.2,324.0,-0.8,1.8,2470.84,13.28,0.035,141.8
2022-02-13T07:49:03,42.805,6.029,0.053,-0.029,0.004,102.0,102.0,99.0,13.4,1505.2,326.8,-0.7,1.8,2470.837,13.28,0.06,118.7
2022-02-13T07:52:03,42.805,6.029,0.046,0.001,0.02,101.0,104.0,100.0,13.4,1505.2,331.8,-0.7,1.8,2470.833,13.28,0.046,88.8
2022-02-13T07:55:03,42.805,6.029,0.033,-0.002,0.003,101.0,103.0,101.0,13.4,1505.2,329.0,-0.8,1.8,2470.841,13.28,0.033,93.5
2022-02-13T07:58:03,42.805,6.029,0.05,-0.007,0.006,102.0,102.0,101.0,13.3,1505.2,324.5,-0.7,1.8,2470.834,13.28,0.05,98.0
2022-02-13T08:04:03,42.805,6.029,0.052,-0.008,0.027,102.0,103.0,100.0,13.4,1505.2,325.4,-0.8,1.8,2470.821,13.28,0.052,98.7
2022-02-13T08:07:03,42.805,6.029,0.052,-0.003,0.002,101.0,104.0,100.0,13.4,1505.2,329.3,-0.7,1.8,2470.862,13.28,0.052,93.3
2022-02-13T08:10:03,42.805,6.029,0.048,-0.009,0.036,102.0,102.0,101.0,13.4,1505.2,328.4,-0.8,1.8,2470.807,13.28,0.048,100.6
2022-02-13T08:13:03,42.805,6.029,0.058,-0.018,0.01,103.0,104.0,100.0,13.4,1505.2,329.1,-0.7,1.8,2470.839,13.28,0.06,107.2
2022-02-13T08:16:03,42.805,6.029,0.042,-0.006,0.017,101.0,103.0,101.0,13.3,1505.2,327.8,-0.7,1.8,2470.829,13.28,0.042,98.1
2022-02-13T08:19:03,42.805,6.029,0.052,-0.009,0.01,101.0,103.0,101.0,13.4,1505.2,324.2,-0.7,1.8,2470.807,13.28,0.052,99.8
2022-02-13T08:22:03,42.805,6.029,0.029,-0.014,-0.037,102.0,103.0,101.0,13.4,1505.2,325.7,-0.7,1.9,2470.849,13.28,0.032,115.8
2022-02-13T08:25:03,42.805,6.029,0.064,-0.001,0.026,102.0,103.0,101.0,13.3,1505.2,331.5,-0.8,1.8,2470.794,13.28,0.064,90.9
2022-02-13T08:28:03,42.805,6.029,0.048,-0.018,-0.02,102.0,103.0,101.0,13.4,1505.2,327.8,-0.7,1.8,2470.791,13.28,0.051,110.6
2022-02-13T08:31:03,42.805,6.029,0.029,-0.004,-0.019,102.0,103.0,102.0,13.4,1505.2,324.1,-0.7,1.9,2470.843,13.28,0.029,97.8
2022-02-13T08:34:03,42.805,6.029,0.078,-0.028,-0.003,103.0,104.0,100.0,13.4,1505.2,323.9,-0.8,1.8,2470.801,13.28,0.082,109.7
2022-02-13T08:37:03,42.805,6.029,0.044,-0.032,-0.035,101.0,103.0,102.0,13.4,1505.2,325.4,-0.8,1.8,2470.828,13.28,0.054,126.0
2022-02-13T08:40:03,42.805,6.029,0.053,-0.028,0.004,103.0,102.0,101.0,13.4,1505.2,328.4,-0.8,1.8,2470.819,13.28,0.059,117.9
2022-02-13T08:43:03,42.805,6.029,0.037,-0.025,-0.024,103.0,103.0,101.0,13.4,1505.2,325.6,-0.8,1.8,2470.807,13.28,0.044,124.0
2022-02-13T08:46:03,42.805,6.029,0.028,-0.017,-0.006,102.0,103.0,101.0,13.4,1505.2,328.0,-0.8,1.8,2470.783,13.28,0.032,121.3
2022-02-13T08:49:03,42.805,6.029,0.057,-0.01,0.025,102.0,103.0,101.0,13.4,1505.2,329.0,-0.7,1.8,2470.812,13.28,0.057,99.9
2022-02-13T08:52:03,42.805,6.029,0.075,-0.015,0.038,102.0,103.0,101.0,13.4,1505.2,329.1,-0.8,1.8,2470.838,13.28,0.076,101.3
2022-02-13T08:55:03,42.805,6.029,0.075,-0.008,0.037,102.0,104.0,101.0,13.3,1505.2,323.9,-0.8,1.8,2470.824,13.28,0.075,96.1
2022-02-13T08:58:03,42.805,6.029,0.026,-0.001,0.013,101.0,103.0,101.0,13.3,1505.2,329.1,-0.8,1.8,2470.824,13.28,0.026,92.2
2022-02-13T09:04:03,42.805,6.029,0.055,-0.009,-0.029,101.0,104.0,101.0,13.4,1505.2,326.2,-0.8,1.9,2470.81,13.28,0.055,99.3
2022-02-13T09:07:03,42.805,6.029,0.041,-0.018,-0.001,102.0,104.0,101.0,13.4,1505.2,328.8,-0.8,1.8,2470.808,13.28,0.044,113.7
2022-02-13T09:10:03,42.805,6.029,0.052,-0.011,-0.007,102.0,104.0,101.0,13.4,1505.2,326.9,-0.8,1.8,2470.82,13.28,0.053,101.9
2022-02-13T09:13:03,42.805,6.029,0.035,0.005,0.0,103.0,103.0,101.0,13.4,1505.2,327.2,-0.7,1.8,2470.819,13.28,0.035,81.9
2022-02-13T09:16:03,42.805,6.029,0.058,-0.026,0.016,102.0,104.0,101.0,13.4,1505.2,326.6,-0.8,1.8,2470.826,13.28,0.063,114.1
2022-02-13T09:19:03,42.805,6.029,0.036,0.007,0.002,102.0,104.0,101.0,13.4,1505.2,323.3,-0.7,1.8,2470.828,13.28,0.036,79.0
2022-02-13T09:22:03,42.805,6.029,0.01,-0.012,-0.031,103.0,104.0,100.0,13.4,1505.2,324.4,-0.8,1.8,2470.798,13.28,0.015,140.2
2022-02-13T09:25:03,42.805,6.029,0.027,0.004,-0.006,103.0,103.0,101.0,13.4,1505.2,325.7,-0.7,1.8,2470.783,13.28,0.027,81.6
2022-02-13T09:28:03,42.805,6.029,0.023,-0.014,-0.029,101.0,103.0,101.0,13.4,1505.2,329.0,-0.8,1.8,2470.797,13.28,0.026,121.3
2022-02-13T09:31:03,42.805,6.029,0.016,-0.023,-0.04,103.0,103.0,100.0,13.4,1505.2,330.7,-0.7,1.8,2470.796,13.28,0.028,145.2
2022-02-13T09:34:03,42.805,6.029,0.054,-0.006,-0.014,103.0,103.0,101.0,13.3,1505.2,328.1,-0.7,1.8,2470.756,13.28,0.054,96.3
2022-02-13T09:37:03,42.805,6.029,0.049,-0.005,0.0,102.0,103.0,101.0,13.4,1505.2,325.6,-0.8,1.8,2470.768,13.28,0.049,95.8
2022-02-13T09:40:03,42.805,6.029,0.037,0.0,-0.013,102.0,104.0,101.0,13.4,1505.2,325.0,-0.7,1.8,2470.788,13.28,0.037,90.0
2022-02-13T09:43:03,42.805,6.029,0.039,0.009,0.012,101.0,105.0,101.0,13.4,1505.2,323.0,-0.7,1.8,2470.797,13.28,0.04,77.0
2022-02-13T09:46:03,42.805,6.029,0.056,-0.047,0.003,102.0,104.0,102.0,13.4,1505.2,331.9,-0.8,1.8,2470.748,13.28,0.073,130.0
2022-02-13T09:49:03,42.805,6.029,0.051,-0.005,0.038,102.0,103.0,101.0,13.3,1505.2,325.4,-0.8,1.8,2470.749,13.28,0.051,95.6
2022-02-13T09:52:03,42.805,6.029,0.042,-0.017,-0.012,102.0,104.0,100.0,13.4,1505.2,324.5,-0.8,1.8,2470.78,13.28,0.045,112.0
2022-02-13T09:55:03,42.805,6.029,0.048,-0.012,0.022,102.0,102.0,101.0,13.4,1505.2,330.0,-0.7,1.8,2470.798,13.28,0.049,104.0